OPS 4682 DEB, 38439

Orbit data source: Space-Track

OPS 4682 DEB, 38439 is space debris in LEO originally from a launch on Sat, 03 Apr 1965 UTC launched from the Air Force Western Test Range (AFWTR). Debris objects in space refer to the collection of defunct objects orbiting the Earth. Examples of debris include non-operational satellites, rocket bodies, and fragments generated from explosions, collisions, or faulty payload assembly.

Loading next visibility...
Identifier
38439, 1965-027EU
Orbit
LEO
Country
Flag of USUS
Related business
Manufacturer
Unknown
Mission
Spacecraft
Bus & Motor
Unknown
Mass
Unknown
Launch date (UTC)
1965-04-03 (61 years ago)
Launch vehicle
Unknown
Launch site
Air Force Western Test Range (AFWTR)
Object type
Payload
Rocket body
Debris
Shape & HBR
Unknown shape, 0.1 m
Radar Cross Section
Small (<0.1 m²)

Expand to show TLE details & history
Last TLE update: 17 hours ago

TLE from 17 hours ago
0 OPS 4682 DEB
1 38439U 65027EU  26130.14742803 -.00000478  00000-0 -16106-2 0  9995
2 38439  90.3073  34.8557 0037116 129.1807 231.2621 12.99935724659849
Epoch: 2026-05-10T03:32Z
TLE epoch observation values (Epoch: 2026-05-10T03:32:17.781Z)
Latitude
-0.00011°
Longitude
113.82693°
Altitude
1,283.035 km
Speed
7.206 km/s
True Right ascension
02h 19m 25s
True Declination
0° 00' 00"
Sunlit
Object was in daylight at epoch
Visualization orbit readout
Latitude
Unknown
Longitude
Unknown
Altitude
Unknown
Speed
Unknown
Apparent Right ascension
Unknown
Apparent Declination
Unknown
Sunlit
N/A
Visualization observer readout
Local Sidereal Time
04:39:10
Azimuth
Unknown
Elevation
Unknown
Doppler factor
Unknown
Orbital elements
Apogee altitude
1,287.813 km
Perigee altitude
1,231.118 km
Semi-major axis
7,637.603 km
Eccentricity
0.00371
Inclination
90.3073°
RAAN
34.8557°
Arg. of periapsis
129.1807°
True anomaly
230.93131°
Mean anomaly
231.2621°
Eccentric anomaly
231.09661°
Mean motion
3.25168 °/min
Orbital period
110.71 mins
BSTAR
-0.0016106
Loading maneuver chart data...
Computing Atmospheric mass density...
Loading historical data...
Loading historical data...
Loading historical data...
Loading historical data...
Loading historical data...
Loading historical data...
Loading historical data...

Documentation

Showing up to 5 results
|